{"data":{"norad_id":62994,"epoch":"2026-05-25T03:29:03.520032Z","epoch_age_seconds":62658,"freshness":"FRESH","line1":"1 62994U 25031P   26145.14517963  .00018132  00000+0  66637-3 0  9990","line2":"2 62994  42.9984  71.9408 0001307 264.7102  95.3601 15.27601236 72781","mean_motion":15.27601236,"eccentricity":0.0001307,"inclination_deg":42.9984,"raan_deg":71.9408,"arg_perigee_deg":264.7102,"mean_anomaly_deg":95.3601,"bstar":0.00066637,"rev_number":7278,"period_min":94.265438261271,"perigee_km":482.08875984082,"apogee_km":483.88225726456,"semimajor_km":6861.1225085527,"source":"CELESTRAK","updated_at":"2026-05-25T13:38:19.832818Z"}}